Starlink 31086

operational
NORAD ID: 58626 Int'l Des: 2023-203 Owner: SPXS Country: US Constellation: starlink
LEOCIRCULAR

关于 Starlink 31086

正在加载描述...

实时位置

正在加载3D地球...

即将过境

高度历史

Altitude vs Time

uPlot chart will show altitude changes over time

两行轨道根数

1 58626U 23203J 25350.24244358 .00001684 00000-0 70697-4 0 9996
2 58626 43.0021 177.9820 0001161 265.4554 94.6165 15.27583881110802
Epoch: Dec 16, 2025 • Age: 16 hours

当前状态

高度 484.1 km
速度 7.62 km/s
星下点 -8.26°S, 117.75°E
发射日期 Dec 23, 2023
运行时间 1.9 years
类型 internet

技术详情

分类 Payload
质量 730.00 kg
干质量 700.00 kg
总质量 730.00 kg
长度 0.30 m
直径 4.10 m
跨度 29.00 m
形状 Box + pan
制造商 SPXS
平台类型 Starlink V2M
阶段状态 In Orbit
所有者/国家 SPXS/US

大型星座

Loading constellations...